Weather History for Caro, MI

Change the Weather History Date:

Saturday, November 3, 2012

  Actual Average (KMBS) Record (KMBS)
Temperature  
Mean Temperature 34 °F 44 °F  
Max Temperature 37 °F 52 °F 66 °F (2008)
Min Temperature 32 °F 35 °F 24 °F (2002)
Degree Days  
Heating Degree Days 30    
Month to date heating degree days  
Since 1 July heating degree days  
Cooling Degree Days 0    
Month to date cooling degree days  
Year to date cooling degree days  
Moisture  
Dew Point 30 °F    
Average Humidity 81    
Maximum Humidity 96    
Minimum Humidity 70    
Precipitation  
Precipitation 0.00 in 0.09 in 0.31 in (2003)
Month to date precipitation 0.28  
Year to date precipitation 27.26  
Snow  
Snow 0.00 in - - ()
Month to date snowfall  
Since 1 July snowfall  
Since 1 September snowfall  
Snow Depth -    
Sea Level Pressure  
Sea Level Pressure 30.15 in    
Wind  
Wind Speed 6 mph (NW)    
Max Wind Speed 13 mph    
Max Gust Speed -    
Visibility 10 miles    
Events      
T = Trace of Precipitation, MM = Missing Value Source: NWS Daily Summary

Daily Weather History Graph

Daily Weather History Graph

Search for Another Location

Airport:

Trip Planner

Search our weather history database for the weather conditions in past years. The results will help you decide how hot, cold, wet, or windy it might be!

Date:

Astronomy

Nov. 03, 2012 Rise Set
Actual Time 8:12 AM EDT 6:21 PM EDT
Civil Twilight 7:42 AM EDT 6:51 PM EDT
Nautical Twilight 7:08 AM EDT 7:25 PM EDT
Astronomical Twilight 6:35 AM EDT 7:58 PM EDT
Moon 9:59 PM EDT (11/3) 12:18 PM EDT (11/3)
Length of Visible Light 11h 09m
Length of Day
10h 09m
Waning Gibbous, 80% of the Moon is Illuminated
Nov 3
Waning Gibbous
Nov 6
Last Quarter
Nov 13
New
Nov 20
First Quarter
Nov 28
Full

Hourly Weather History & Observations

Time (EDT) Temp. Windchill Dew Point Humidity Pressure Visibility Wind Dir Wind Speed Gust Speed Precip Events Conditions
12:15 AM 35.6 °F 29.2 °F 31.1 °F 84% 30.07 in 10.0 mi NW 8.1 mph - N/A   Overcast
12:35 AM 35.2 °F 28.8 °F 31.1 °F 85% 30.07 in 10.0 mi NW 8.1 mph - N/A   Overcast
12:54 AM 35.2 °F 28.1 °F 31.3 °F 85% 30.07 in 10.0 mi NW 9.2 mph - N/A   Overcast
1:15 AM 35.2 °F 30.3 °F 31.5 °F 86% 30.08 in 10.0 mi NNW 5.8 mph - N/A   Overcast
1:34 AM 34.9 °F 29.0 °F 31.1 °F 86% 30.08 in 10.0 mi NW 6.9 mph - N/A   Mostly Cloudy
1:55 AM 34.0 °F 28.8 °F 30.9 °F 89% 30.08 in 10.0 mi NW 5.8 mph - N/A   Scattered Clouds
2:15 AM 33.3 °F 28.9 °F 30.2 °F 89% 30.09 in 10.0 mi NW 4.6 mph - N/A   Clear
2:34 AM 32.5 °F 28.1 °F 30.4 °F 92% 30.09 in 10.0 mi NW 4.6 mph - N/A   Clear
2:55 AM 32.4 °F 27.9 °F 30.2 °F 92% 30.09 in 10.0 mi NW 4.6 mph - N/A   Clear
3:15 AM 32.9 °F 27.5 °F 30.7 °F 92% 30.10 in 10.0 mi NW 5.8 mph - N/A   Mostly Cloudy
3:34 AM 32.7 °F 28.3 °F 30.6 °F 92% 30.10 in 10.0 mi WNW 4.6 mph - N/A   Scattered Clouds
3:55 AM 32.0 °F 26.4 °F 29.8 °F 92% 30.10 in 10.0 mi West 5.8 mph - N/A   Scattered Clouds
4:15 AM 32.0 °F 27.5 °F 30.2 °F 93% 30.10 in 10.0 mi West 4.6 mph - N/A   Mostly Cloudy
4:34 AM 32.2 °F 26.7 °F 31.1 °F 96% 30.10 in 10.0 mi West 5.8 mph - N/A   Overcast
4:55 AM 32.9 °F 27.5 °F 31.1 °F 93% 30.10 in 10.0 mi West 5.8 mph - N/A   Overcast
5:14 AM 33.1 °F 28.7 °F 31.6 °F 94% 30.11 in 10.0 mi West 4.6 mph - N/A   Overcast
5:34 AM 32.9 °F 28.5 °F 31.1 °F 93% 30.11 in 10.0 mi WNW 4.6 mph - N/A   Overcast
5:55 AM 33.8 °F 28.6 °F 30.9 °F 89% 30.12 in 10.0 mi WNW 5.8 mph - N/A   Overcast
6:14 AM 33.8 °F 28.6 °F 30.7 °F 89% 30.12 in 10.0 mi WNW 5.8 mph - N/A   Overcast
6:34 AM 33.8 °F 28.6 °F 30.7 °F 89% 30.13 in 10.0 mi WNW 5.8 mph - N/A   Overcast
6:55 AM 34.0 °F 28.0 °F 30.9 °F 89% 30.13 in 10.0 mi NW 6.9 mph - N/A   Overcast
7:14 AM 34.3 °F 28.4 °F 30.9 °F 87% 30.13 in 10.0 mi NW 6.9 mph - N/A   Overcast
7:35 AM 34.5 °F 30.4 °F 30.9 °F 87% 30.13 in 10.0 mi WNW 4.6 mph - N/A   Overcast
7:55 AM 34.5 °F 29.4 °F 30.9 °F 87% 30.14 in 10.0 mi NW 5.8 mph - N/A   Overcast
8:14 AM 34.7 °F 28.8 °F 31.1 °F 87% 30.14 in 10.0 mi NW 6.9 mph - N/A   Overcast
8:35 AM 34.7 °F 28.8 °F 31.1 °F 87% 30.14 in 10.0 mi NNW 6.9 mph - N/A   Overcast
8:54 AM 34.9 °F 29.9 °F 31.5 °F 87% 30.15 in 10.0 mi NW 5.8 mph - N/A   Overcast
9:15 AM 35.1 °F 30.1 °F 31.3 °F 86% 30.15 in 10.0 mi NW 5.8 mph - N/A   Overcast
9:35 AM 35.6 °F 31.7 °F 31.3 °F 84% 30.16 in 10.0 mi WNW 4.6 mph - N/A   Overcast
9:54 AM 35.8 °F 30.1 °F 31.1 °F 83% 30.17 in 10.0 mi NW 6.9 mph - N/A   Overcast
10:15 AM 36.1 °F 29.3 °F 31.1 °F 82% 30.17 in 10.0 mi NNW 9.2 mph - N/A   Overcast
10:35 AM 36.5 °F 28.7 °F 30.9 °F 80% 30.17 in 10.0 mi North 11.5 mph - N/A   Overcast
11:15 AM 36.5 °F 29.7 °F 30.0 °F 77% 30.18 in 10.0 mi North 9.2 mph - N/A   Overcast
11:34 AM 36.5 °F 29.2 °F 29.8 °F 77% 30.19 in 10.0 mi NNW 10.4 mph - N/A   Overcast
11:54 AM 36.5 °F 29.7 °F 30.2 °F 78% 30.19 in 10.0 mi NNW 9.2 mph - N/A   Overcast
12:15 PM 36.7 °F 29.9 °F 30.0 °F 77% 30.19 in 10.0 mi North 9.2 mph - N/A   Overcast
12:34 PM 37.0 °F 30.4 °F 29.7 °F 75% 30.19 in 10.0 mi North 9.2 mph - N/A   Overcast
12:54 PM 37.6 °F 31.6 °F 29.5 °F 73% 30.18 in 10.0 mi NNW 8.1 mph - N/A   Overcast
1:14 PM 37.4 °F 33.8 °F 28.6 °F 70% 30.17 in 10.0 mi North 4.6 mph - N/A   Overcast
1:34 PM 37.2 °F 30.6 °F 29.1 °F 73% 30.17 in 10.0 mi NNW 9.2 mph - N/A   Overcast
1:55 PM 37.4 °F 30.8 °F 29.7 °F 74% 30.17 in 10.0 mi NW 9.2 mph - N/A   Overcast
2:14 PM 36.7 °F 29.9 °F 29.1 °F 74% 30.17 in 10.0 mi NNW 9.2 mph - N/A   Overcast
2:34 PM 36.9 °F 28.7 °F 30.2 °F 77% 30.17 in 10.0 mi NNW 12.7 mph - N/A   Overcast
2:55 PM 36.7 °F 30.5 °F 29.5 °F 75% 30.17 in 10.0 mi NW 8.1 mph - N/A   Overcast
3:14 PM 36.9 °F 30.7 °F 29.3 °F 74% 30.17 in 10.0 mi WNW 8.1 mph - N/A   Overcast
3:35 PM 36.5 °F 30.3 °F 28.8 °F 74% 30.18 in 10.0 mi WNW 8.1 mph - N/A   Overcast
3:55 PM 36.0 °F 32.1 °F 28.4 °F 74% 30.17 in 10.0 mi NNW 4.6 mph - N/A   Overcast
4:14 PM 36.7 °F 31.2 °F 28.8 °F 73% 30.17 in 10.0 mi WNW 6.9 mph - N/A   Overcast
4:35 PM 36.7 °F 30.5 °F 28.4 °F 72% 30.17 in 10.0 mi WNW 8.1 mph - N/A   Mostly Cloudy
4:54 PM 36.5 °F 29.7 °F 28.8 °F 74% 30.17 in 10.0 mi WNW 9.2 mph - N/A   Overcast
5:15 PM 36.5 °F 31.0 °F 28.4 °F 72% 30.17 in 10.0 mi WNW 6.9 mph - N/A   Overcast
5:35 PM 35.8 °F 30.1 °F 28.0 °F 73% 30.17 in 10.0 mi WNW 6.9 mph - N/A   Overcast
5:54 PM 35.6 °F 30.7 °F 28.0 °F 74% 30.17 in 10.0 mi NW 5.8 mph - N/A   Overcast
6:15 PM 35.6 °F 31.7 °F 27.7 °F 73% 30.17 in 10.0 mi WNW 4.6 mph - N/A   Overcast
6:35 PM 35.6 °F 29.9 °F 27.5 °F 72% 30.17 in 10.0 mi NNW 6.9 mph - N/A   Overcast
6:54 PM 35.1 °F 32.2 °F 26.8 °F 72% 30.17 in 10.0 mi North 3.5 mph - N/A   Overcast
7:15 PM 35.2 °F 30.3 °F 27.9 °F 74% 30.18 in 10.0 mi NW 5.8 mph - N/A   Overcast
7:34 PM 35.1 °F 30.1 °F 27.1 °F 73% 30.18 in 10.0 mi NNW 5.8 mph - N/A   Overcast
7:54 PM 34.9 °F 30.8 °F 26.4 °F 71% 30.18 in 10.0 mi NNW 4.6 mph - N/A   Overcast
8:15 PM 34.2 °F - 25.5 °F 71% 30.19 in 10.0 mi Calm Calm - N/A   Overcast
8:34 PM 34.7 °F - 26.2 °F 71% 30.19 in 10.0 mi Calm Calm - N/A   Overcast
9:15 PM 33.3 °F - 28.4 °F 82% 30.17 in 10.0 mi Calm Calm - N/A   Overcast
9:34 PM 32.7 °F - 29.3 °F 87% 30.18 in 10.0 mi Calm Calm - N/A   Overcast
9:55 PM 34.0 °F - 29.8 °F 85% 30.18 in 10.0 mi Calm Calm - N/A   Overcast
10:15 PM 34.9 °F - 30.2 °F 83% 30.18 in 10.0 mi Calm Calm - N/A   Overcast
10:34 PM 34.9 °F 32.0 °F 29.7 °F 81% 30.19 in 10.0 mi NW 3.5 mph - N/A   Overcast
10:55 PM 34.2 °F 31.2 °F 28.0 °F 78% 30.19 in 10.0 mi NW 3.5 mph - N/A   Overcast
11:15 PM 34.7 °F - 28.6 °F 78% 30.18 in 10.0 mi Calm Calm - N/A   Overcast
11:34 PM 34.7 °F - 28.2 °F 77% 30.18 in 3.0 mi Calm Calm - N/A   Haze
11:55 PM 34.7 °F 28.8 °F 27.7 °F 76% 30.18 in 10.0 mi North 6.9 mph - N/A   Overcast